Regional Weather Roundup
Issued by NWS

Home | Current Version | Previous Version | Text Only | Print | Product List | Glossary Off
Versions: 1 2 3 4 5 6 7 8 9 10 11 12 13 14 15 16 17 18 19 20 21 22 23 24 25 26 27 28 29 30 31 32 33 34 35 36 37 38 39 40 41 42 43 44 45 46 47 48 49

000
ASUS45 KCYS 300110
RWRWY

WYOMING REGIONAL WEATHER ROUNDUP
NATIONAL WEATHER SERVICE CHEYENNE WY
600 PM MST THU JAN 29 2015

NOTE:  "FAIR" INDICATES FEW OR NO CLOUDS BELOW 12,000 FEET
WITH NO SIGNIFICANT WEATHER AND/OR OBSTRUCTIONS TO VISIBILITY.

WYZ001-300200-
YELLOWSTONE NATIONAL PARK

CITY           SKY/WX    TMP DP  RH WIND       PRES   REMARKS
LK YELLOWSTONE   N/A     15  11  83 CALM      30.37R
W YELLOWSTONE  NOT AVBL

$$
WYZ002>013-054>058-071-098>099-300200-
NORTHERN WYOMING

CITY           SKY/WX    TMP DP  RH WIND       PRES   REMARKS
JACKSON        CLEAR     25  21  86 N9        30.35S WCI  15
CODY           FAIR      36  28  75 SE7       30.29S WCI  30
GREYBULL       FOG       28  28 100 NW6       30.30F VSB 1/2 WCI  22
WORLAND        FAIR      35  29  78 SE13      30.29F WCI  26
SHERIDAN       FAIR      30  22  72 SW3       30.27F
BUFFALO        FAIR      36  25  64 NW5       30.27F WCI  32
GILLETTE       FAIR      30  23  75 S8        30.30S WCI  22
HULETT           N/A    N/A N/A N/A MISG        N/A
NEWCASTLE      FAIR      32  21  64 E9        30.37F WCI  24

$$
WYZ014>020-022>026-101>103-300200-
CENTRAL WYOMING

CITY           SKY/WX    TMP DP  RH WIND       PRES   REMARKS
BIG PINEY      FAIR      25  21  85 N9        30.35S WCI  15
PINEDALE       FAIR      23  23 100 W3        30.35F
DUBOIS         FAIR      30  19  64 CALM      30.30S
LANDER         FAIR      33  26  75 W8        30.29S WCI  26
RIVERTON       FAIR      36  28  73 NE6       30.31S WCI  31
CASPER         FAIR      33  25  72 CALM      30.32S
DOUGLAS        FAIR      36  23  59 E9        30.34F WCI  29

$$
WYZ021-027>030-104>119-300200-
SOUTHERN WYOMING

CITY           SKY/WX    TMP DP  RH WIND       PRES   REMARKS
EVANSTON       FAIR      32  27  81 NE7       30.31S WCI  26
KEMMERER       FAIR      32  27  80 N7        30.33R WCI  26
FORT BRIDGER   FAIR      32  32  97 W9        30.35R WCI  25
ROCK SPRINGS   FAIR      34  26  72 E5        30.31S WCI  30
DIXON          FAIR      32  29  89 NE6       30.33S WCI  27
RAWLINS        FAIR      33  26  75 NE8       30.32F WCI  26
SARATOGA       FAIR      34  28  80 CALM      30.32S
LARAMIE        FAIR      30  23  75 SE12      30.33F WCI  20
CHEYENNE       FAIR      36  21  54 S10       30.37S WCI  28
TORRINGTON     FAIR      34  20  56 E10       30.37S WCI  26
PINE BLUFFS    FAIR      32  23  69 S6        30.40S WCI  26

$$



USA.gov is the U.S. government's official web portal to all federal, state and local government web resources and services.